Weather History for Columbus AFB, MS

Change the Weather History Date:

Wednesday, December 26, 2012

  Actual Average Record
Temperature  
Mean Temperature 40 °F -  
Max Temperature 48 °F 52 °F 71 °F (2008)
Min Temperature 33 °F 33 °F 24 °F (2010)
Degree Days  
Heating Degree Days 24    
Moisture  
Dew Point 31 °F    
Average Humidity 77    
Maximum Humidity 93    
Minimum Humidity 70    
Precipitation  
Precipitation 0.01 in - - ()
Sea Level Pressure  
Sea Level Pressure 29.81 in    
Wind  
Wind Speed 17 mph (West)    
Max Wind Speed 24 mph    
Max Gust Speed 33 mph    
Visibility 10 miles    
Events Rain    
Averages and records for this station are not official NWS values.
T = Trace of Precipitation, MM = Missing Value Source: NWS Daily Summary

Daily Weather History Graph

Daily Weather History Graph

Search for Another Location

Airport:

Trip Planner

Search our weather history database for the weather conditions in past years. The results will help you decide how hot, cold, wet, or windy it might be!

Date:

Astronomy

Dec. 26, 2012 Rise Set
Actual Time 6:56 AM CST 4:52 PM CST
Civil Twilight 6:29 AM CST 5:20 PM CST
Nautical Twilight 5:58 AM CST 5:51 PM CST
Astronomical Twilight 5:27 AM CST 6:21 PM CST
Moon 3:44 PM CST (12/26) 5:21 AM CST (12/26)
Length of Visible Light 10h 51m
Length of Day
9h 55m
Waxing Gibbous, 97% of the Moon is Illuminated
Dec 26
Waxing Gibbous
Dec 28
Full
Jan 4
Last Quarter
Jan 11
New
Jan 18
First Quarter

Hourly Weather History & Observations

Time (CST) Temp. Windchill Dew Point Humidity Pressure Visibility Wind Dir Wind Speed Gust Speed Precip Events Conditions
12:20 AM 48.2 °F - 41.0 °F 76% 29.51 in 10.0 mi SW 16.1 mph 25.3 mph N/A   Scattered Clouds
12:34 AM 48.2 °F - 41.0 °F 76% 29.51 in 10.0 mi SW 11.5 mph 18.4 mph N/A   Mostly Cloudy
12:38 AM 48.2 °F - 41.0 °F 76% 29.52 in 10.0 mi SW 16.1 mph 20.7 mph N/A   Mostly Cloudy
12:55 AM 46.9 °F - 38.7 °F 73% 29.53 in 10.0 mi WSW 18.4 mph 33.4 mph 0.01 in   Overcast
1:06 AM 44.6 °F 36.4 °F 37.4 °F 76% 29.54 in 10.0 mi WSW 20.7 mph 32.2 mph N/A   Overcast
1:10 AM 44.6 °F 36.4 °F 37.4 °F 76% 29.54 in 10.0 mi SW 20.7 mph 29.9 mph N/A   Overcast
1:22 AM 44.6 °F 36.6 °F 35.6 °F 71% 29.56 in 10.0 mi SW 19.6 mph 31.1 mph N/A   Overcast
1:37 AM 42.8 °F 34.3 °F 35.6 °F 76% 29.55 in 10.0 mi SW 19.6 mph 26.5 mph N/A   Overcast
1:44 AM 42.8 °F 33.8 °F 35.6 °F 76% 29.57 in 10.0 mi SW 21.9 mph 25.3 mph N/A   Mostly Cloudy
1:55 AM 42.1 °F 34.2 °F 34.0 °F 73% 29.57 in 10.0 mi WSW 16.1 mph 26.5 mph N/A   Mostly Cloudy
1:58 AM 42.8 °F 34.0 °F 33.8 °F 70% 29.57 in 10.0 mi WSW 20.7 mph 26.5 mph N/A   Mostly Cloudy
2:02 AM 41.0 °F 32.2 °F 33.8 °F 76% 29.57 in 10.0 mi WSW 18.4 mph 25.3 mph N/A   Mostly Cloudy
2:03 AM 41.0 °F 32.5 °F 33.8 °F 76% 29.57 in 10.0 mi SW 17.3 mph 31.1 mph N/A   Mostly Cloudy
2:05 AM 41.0 °F 31.1 °F 33.8 °F 76% 29.58 in 10.0 mi WSW 23.0 mph 31.1 mph N/A   Mostly Cloudy
2:11 AM 41.0 °F 32.2 °F 33.8 °F 76% 29.58 in 10.0 mi WSW 18.4 mph 31.1 mph N/A   Mostly Cloudy
2:12 AM 41.0 °F 32.5 °F 33.8 °F 76% 29.58 in 10.0 mi WSW 17.3 mph 31.1 mph N/A   Mostly Cloudy
2:15 AM 41.0 °F 33.5 °F 33.8 °F 76% 29.59 in 10.0 mi SW 13.8 mph 27.6 mph N/A   Mostly Cloudy
2:28 AM 41.0 °F 32.8 °F 33.8 °F 76% 29.59 in 10.0 mi SW 16.1 mph 26.5 mph N/A   Overcast
2:32 AM 41.0 °F 31.6 °F 33.8 °F 76% 29.59 in 10.0 mi SW 20.7 mph 28.8 mph N/A   Overcast
2:33 AM 41.0 °F 31.4 °F 33.8 °F 76% 29.59 in 10.0 mi SW 21.9 mph 28.8 mph N/A   Overcast
2:36 AM 41.0 °F 32.8 °F 33.8 °F 76% 29.59 in 10.0 mi SW 16.1 mph 28.8 mph N/A   Overcast
2:46 AM 39.2 °F 29.6 °F 33.8 °F 81% 29.60 in 10.0 mi SW 19.6 mph 25.3 mph N/A   Overcast
2:55 AM 39.0 °F 29.6 °F 34.9 °F 85% 29.60 in 10.0 mi SW 18.4 mph 28.8 mph 0.00 in   Light Drizzle
3:00 AM 39.2 °F 28.5 °F 35.6 °F 87% 29.60 in 10.0 mi SW 24.2 mph 29.9 mph N/A Rain Light Rain
3:10 AM 39.2 °F 30.5 °F 33.8 °F 81% 29.60 in 10.0 mi SW 16.1 mph 29.9 mph N/A   Overcast
3:42 AM 37.4 °F 26.9 °F 33.8 °F 87% 29.62 in 10.0 mi SW 20.7 mph 27.6 mph N/A Rain Light Rain
3:54 AM 37.4 °F 29.3 °F 33.8 °F 87% 29.63 in 10.0 mi WSW 12.7 mph 27.6 mph N/A Rain Light Rain
3:55 AM 37.4 °F 29.8 °F 34.2 °F 88% 29.62 in 10.0 mi WSW 11.5 mph 27.6 mph 0.00 in Rain Light Rain
4:32 AM 37.4 °F 29.3 °F 33.8 °F 87% 29.65 in 10.0 mi WSW 12.7 mph - N/A   Overcast
4:37 AM 35.6 °F 26.6 °F 33.8 °F 93% 29.65 in 10.0 mi West 13.8 mph - N/A   Overcast
4:55 AM 36.1 °F 26.5 °F 32.4 °F 86% 29.66 in 10.0 mi West 16.1 mph 25.3 mph 0.00 in   Overcast
5:02 AM 35.6 °F 26.6 °F 32.0 °F 87% 29.67 in 10.0 mi West 13.8 mph 25.3 mph N/A   Light Drizzle
5:11 AM 35.6 °F 25.5 °F 32.0 °F 87% 29.68 in 10.0 mi West 17.3 mph 27.6 mph N/A   Overcast
5:40 AM 35.6 °F 25.5 °F 32.0 °F 87% 29.70 in 10.0 mi West 17.3 mph 23.0 mph N/A   Overcast
5:55 AM 36.3 °F 26.8 °F 31.1 °F 81% 29.73 in 10.0 mi West 16.1 mph 25.3 mph 0.00 in   Overcast
6:55 AM 36.0 °F 25.3 °F 29.3 °F 77% 29.78 in 10.0 mi West 19.6 mph 29.9 mph N/A   Overcast
7:05 AM 35.6 °F 24.8 °F 30.2 °F 81% 29.78 in 10.0 mi West 19.6 mph 33.4 mph N/A   Overcast
7:55 AM 35.8 °F 24.2 °F 28.9 °F 76% 29.83 in 10.0 mi WSW 23.0 mph 27.6 mph N/A   Overcast
8:16 AM 35.6 °F 25.2 °F 28.4 °F 75% 29.85 in 10.0 mi West 18.4 mph 26.5 mph N/A   Overcast
8:52 AM 35.6 °F 24.2 °F 28.4 °F 75% 29.88 in 10.0 mi West 21.9 mph 29.9 mph N/A   Overcast
8:55 AM 36.0 °F 25.0 °F 28.6 °F 75% 29.89 in 10.0 mi WSW 20.7 mph 29.9 mph N/A   Overcast
9:35 AM 35.6 °F 24.5 °F 30.2 °F 81% 29.92 in 10.0 mi WSW 20.7 mph 28.8 mph N/A   Overcast
9:55 AM 35.8 °F 23.9 °F 29.7 °F 78% 29.94 in 10.0 mi WSW 24.2 mph 31.1 mph N/A   Overcast
10:55 AM 35.2 °F 23.5 °F 28.8 °F 77% 29.97 in 10.0 mi West 23.0 mph 29.9 mph N/A   Overcast
11:53 AM 35.6 °F 24.0 °F 26.6 °F 70% 29.97 in 10.0 mi West 23.0 mph 32.2 mph N/A   Overcast
11:55 AM 35.4 °F 24.0 °F 27.5 °F 73% 29.98 in 10.0 mi West 21.9 mph 32.2 mph N/A   Overcast
12:10 PM 35.6 °F 24.0 °F 26.6 °F 70% 29.98 in 10.0 mi West 23.0 mph 26.5 mph N/A   Overcast
12:55 PM 35.6 °F 24.0 °F 27.0 °F 71% 30.00 in 10.0 mi WNW 23.0 mph - N/A   Overcast
1:55 PM 35.6 °F 24.8 °F 27.0 °F 71% 30.02 in 10.0 mi West 19.6 mph - N/A   Overcast
2:55 PM 35.2 °F 24.7 °F 26.8 °F 71% 30.05 in 10.0 mi West 18.4 mph 23.0 mph N/A   Overcast
3:55 PM 34.9 °F 25.3 °F 26.6 °F 72% 30.07 in 10.0 mi WNW 15.0 mph - N/A   Overcast
4:26 PM 33.8 °F 25.3 °F 26.6 °F 75% 30.09 in 10.0 mi WNW 11.5 mph 21.9 mph N/A   Overcast
4:55 PM 34.3 °F 25.9 °F 26.6 °F 73% 30.11 in 10.0 mi West 11.5 mph 20.7 mph N/A   Overcast
4:58 PM 33.8 °F 24.8 °F 26.6 °F 75% 30.11 in 10.0 mi West 12.7 mph - N/A   Overcast
5:34 PM 33.8 °F 24.8 °F 26.6 °F 75% 30.13 in 10.0 mi WNW 12.7 mph - N/A   Overcast
5:37 PM 33.8 °F 24.3 °F 26.6 °F 75% 30.13 in 10.0 mi WNW 13.8 mph - N/A   Overcast
5:55 PM 33.8 °F 23.2 °F 26.2 °F 74% 30.14 in 10.0 mi West 17.3 mph - N/A   Overcast
6:34 PM 33.8 °F 23.5 °F 26.6 °F 75% 30.16 in 10.0 mi West 16.1 mph - N/A   Overcast
6:55 PM 33.4 °F 23.9 °F 25.7 °F 73% 30.16 in 10.0 mi WNW 13.8 mph - N/A   Overcast
7:05 PM 33.8 °F 24.3 °F 26.6 °F 75% 30.17 in 10.0 mi WNW 13.8 mph - N/A   Overcast
7:45 PM 33.8 °F 25.8 °F 26.6 °F 75% 30.17 in 10.0 mi WNW 10.4 mph - N/A   Overcast
7:55 PM 33.4 °F 24.8 °F 26.1 °F 74% 30.17 in 10.0 mi WNW 11.5 mph - N/A   Overcast
7:56 PM 33.8 °F 25.8 °F 26.6 °F 75% 30.17 in 10.0 mi WNW 10.4 mph - N/A   Overcast
8:55 PM 33.3 °F 25.1 °F 25.9 °F 74% 30.18 in 10.0 mi NW 10.4 mph - N/A   Overcast
9:55 PM 33.3 °F 25.7 °F 26.1 °F 75% 30.20 in 10.0 mi WNW 9.2 mph - N/A   Overcast
10:55 PM 33.3 °F 26.4 °F 26.1 °F 75% 30.21 in 10.0 mi NW 8.1 mph - N/A   Overcast
11:55 PM 33.1 °F 24.9 °F 25.5 °F 74% 30.19 in 10.0 mi NW 10.4 mph - N/A   Overcast